Weather in Kuybyshev

Russia / Novosibirsk Oblast     55°26′45″N   78°18′39″E
temp.,
°C
wind,
m/s
gust,
m/s
humid.,
%
clouds,
%
prec.,
mm/h
press.,
hPa
HPBL,
m
27 february, sat
sat2701:00−27sw379799 0.1 1034216
04:00−26sw3697100 0.1 1034228
07:00−29sw349895 0.1 103558
10:00−31sw339881 0.0 103567
13:00−27sw349681 0.0 1036252
16:00−24ssw359594 0.0 1036349
19:00−28s349897 0.0 103666
22:00−30s349882 0.0 103653
28 february, sun
sun2801:00−31s349872 0.0 103547
04:00−31sse349989 0.0 103458
07:00−31sse449879 0.0 103379
10:00−27se599590 0.0 1031226
13:00−22se589395 0.0 1029276
16:00−19se5990100 0.0 1025351
19:00−18ese61095100 0.3 1022415
22:00−16e51094100 0.2 1018330
1 march, mon
mon101:00−13e61294100 0.6 1014350
04:00−11e71294100 0.9 1010385
07:00−10ene71394100 2.3 1007373
10:00−10ne71293100 0.6 1006385
13:00−9ne6994100 1.2 1007405
16:00−10ne5893100 0.3 1009408
19:00−12nne479499 0.6 1011328
22:00−13nne4795100 0.3 1013249
2 march, tue
tue201:00−18nne339789 0.3 101629
04:00−19ne229883 0.0 101720
07:00−17ese229790 0.1 101848
10:00−17ese229797 0.3 101889
13:00−14se229096 0.4 1018302
16:00−12sse1187100 0.1 1017369
19:00−14ese1195100 0.1 101620
22:00−15e229697 0.1 101621
3 march, wed
wed301:00−15e129797 0.2 101522
04:00−15ene229696 0.2 101437
07:00−15ene229797 0.4 101440
10:00−15ene2396100 0.3 1015136
13:00−13ene2289100 0.4 1015295
16:00−11n1186100 0.1 1016414
19:00−14nw1194100 0.1 101820
22:00−17w0010096 0.1 102020